{"data":{"norad_id":59166,"epoch":"2026-09-20T21:58:43.652928Z","epoch_age_seconds":122821,"freshness":"FRESH","line1":"1 59166U 24044Q   26263.91578302 -.00000162  00000+0  36487-5 0  9997","line2":"2 59166  43.0017  84.4239 0001410 265.7796  94.2895 15.27574545143451","mean_motion":15.27574545,"eccentricity":0.000141,"inclination_deg":43.0017,"raan_deg":84.4239,"arg_perigee_deg":265.7796,"mean_anomaly_deg":94.2895,"bstar":3.6487e-6,"rev_number":14345,"period_min":94.267085342143,"perigee_km":482.09800077801,"apogee_km":484.03285986336,"semimajor_km":6861.2024303207,"source":"CELESTRAK","updated_at":"2026-09-21T09:00:34.059088Z"}}